Location: ?
(35.3436°N, 139.3168°E)
Time: 20:59:35
(UTC+00:00)

SL-27 R/B - Pass Details

Date: 29 October 2020
Orbit: 419 x 469 km, 74.7° (Epoch: 24 November)

Event Time Altitude Azimuth Distance (km) Brightness Sun altitude
Rises 20:21:16 0° 204° (SSW) 2,481 6.0 -9.0°
Reaches altitude 10° 20:23:23 10° 209° (SSW) 1,615 5.0 -8.5°
Maximum altitude 20:26:53 55° 288° (WNW) 571 2.6 -7.8°
Drops below altitude 10° 20:30:26 10° 7° (N) 1,635 5.2 -7.1°
Sets 20:32:35 0° 12° (NNE) 2,516 6.2 -6.7°
